weather.gov     
National Weather Service

Terminal Aerodrome Forecast
NWS Homepage
This page is being discontinued on March 12, 2014.
The same data is available at this site. Please update your bookmarks.
Thank you, and we apologize for the inconvenience.
Please send an email to SR-SRH.Webmaster@noaa.gov with any concerns.


Current Version
Previous Version:    01  02  03  04  05  06  07  08  09  10  11  12  13  14  
[Printable]
348
FTUS41 KBTV 011227 AAA
TAFBTV
TAF AMD
KBTV 011227Z 0112/0212 VRB03KT P6SM SCT040
     FM011500 35009KT P6SM SCT040 SCT250
     FM012000 36007KT P6SM BKN150 BKN200
     FM020500 36004KT P6SM OVC100
     FM021000 03007KT 1 1/2SM -SN BR OVC035=




U.S. Dept. of Commerce
NOAA National Weather Service
1325 East West Highway
Silver Spring, MD 20910
E-mail: w-nws.webmaster@noaa.gov
Page last modified: May 16, 2007
NATIONAL WEATHER SERVICE: for Safety, for Work, for Fun - FOR LIFE